Location: Invercargill
(46.4000°S, 168.3500°E)
Time: 19:46:03
(UTC+12:00)

Cosmos 2266 Rocket - Pass Details

Date: 14 May 2021
Orbit: 933 x 1009 km, 82.9° (Epoch: 14 June)

Event Time Altitude Azimuth Distance (km) Brightness Sun altitude
Rises 20:07:06 0° 352° (N) 3,584 7.0 -27.8°
Reaches altitude 10° 20:09:33 10° 351° (N) 2,650 6.3 -28.2°
Maximum altitude 20:15:37 84° 263° (W) 964 3.9 -29.3°
Drops below altitude 10° 20:21:51 10° 173° (S) 2,715 6.3 -30.4°
Sets 20:24:23 0° 171° (S) 3,678 7.0 -30.8°
